Location: Tuttlingen
(47.9853°N, 8.8165°E)
Time: 20:03:35
(UTC+01:00)

ISS - Pass Details

Date: 07 January 2018
Orbit: 401 x 407 km, 51.6° (Epoch: 17 January)

Event Time Altitude Azimuth Distance (km) Brightness Sun altitude
Exits shadow 05:57:42 35° 35° (NE) 679 -2.6 -21.9°
Drops below altitude 10° 06:00:06 10° 72° (ENE) 1,468 -0.1 -21.5°
Sets 06:02:15 0° 79° (E) 2,330 1.2 -21.1°
